Wind_Speed
31 32 33 33 34 35 35 35 36 36 37 37 37 38 39 39 39 39 39 40 39 39 40 40 41 41 42 42 42 42 42 42 42 41 40 41 41 41
30 31 32 34 34 35 35 36 36 37 37 37 38 38 39 39 39 39 39 39 39 40 40 40 40 41 41 40 40 40 39 39 38 38 38 38 38 39
29 30 31 32 32 33 35 35 35 36 36 37 37 37 37 38 38 38 37 38 38 39 39 38 38 38 38 38 38 38 37 36 36 35 35 34 35 35
28 30 30 30 31 32 33 33 34 34 34 33 34 35 36 36 36 36 36 37 36 36 36 37 37 36 35 35 35 35 34 33 33 33 33 33 32 31
28 28 28 29 29 30 30 31 31 31 31 32 32 33 33 34 34 34 34 34 34 34 35 35 34 34 34 34 33 32 32 31 31 31 30 29 29 29
27 26 27 27 28 28 29 29 29 30 30 31 31 31 31 31 32 32 32 33 33 33 33 33 32 32 32 31 30 30 29 29 28 28 27 27 27 27
25 25 25 25 26 27 27 27 27 28 29 29 29 29 29 30 30 31 31 31 32 31 31 30 30 30 29 28 27 26 26 25 25 24 25 25 25 25
23 24 24 24 25 25 25 25 25 26 26 26 26 27 27 28 29 29 29 29 29 28 27 27 26 26 25 24 24 24 24 22 22 23 23 22 23 23
22 22 22 23 23 23 23 23 23 23 23 24 24 25 25 26 27 27 27 27 26 25 25 24 23 23 23 22 22 21 21 20 21 21 21 21 21 22
21 21 21 21 22 22 22 22 21 22 22 23 23 24 24 24 24 25 24 23 23 22 22 21 21 21 20 19 19 18 19 19 19 19 19 20 20 20
20 20 20 21 20 20 20 21 21 22 22 22 22 22 22 22 22 22 22 21 21 20 20 20 19 18 18 17 16 16 16 17 17 17 17 18 18 19
18 19 19 19 18 18 19 19 19 20 20 20 20 20 19 19 19 19 19 19 18 18 18 17 16 15 15 14 13 13 14 14 15 16 16 17 17 18
15 15 16 15 16 16 16 17 17 17 17 17 17 17 17 17 16 16 15 15 14 14 13 13 12 12 11 11 11 11 12 13 14 14 15 16 16 17
12 13 13 14 13 14 14 14 14 15 15 15 15 15 14 14 13 12 11 11 11 10 10 9 9 9 9 9 10 10 11 12 13 13 14 15 16 16
10 11 12 12 12 12 12 13 13 13 13 13 12 12 11 11 10 9 9 9 8 8 8 7 7 7 7 8 9 10 11 11 12 12 13 14 15 16
9 9 9 9 10 10 11 11 11 11 11 10 10 9 9 8 8 7 7 7 6 6 5 5 5 6 6 7 9 9 10 11 11 12 13 14 15 16
7 7 7 8 8 8 8 8 8 8 8 8 8 7 7 6 5 5 5 5 4 4 4 3 4 5 6 8 8 9 10 10 11 12 13 14 15 16
4 5 5 6 6 6 6 6 6 6 6 6 5 5 4 4 4 4 3 2 2 2 2 3 4 5 6 7 8 8 9 10 11 12 13 14 15 16
4 5 4 4 4 4 5 5 5 4 4 3 3 2 2 2 2 1 1 1 1 2 2 3 4 5 7 7 8 8 9 10 11 12 13 14 15 16
6 5 5 5 5 4 4 4 4 3 2 2 1 1 1 1 1 1 1 2 2 2 3 4 5 6 7 7 8 8 9 10 11 12 13 14 15 16
7 7 7 6 6 6 6 5 5 4 4 3 3 3 3 3 2 2 2 3 3 3 4 5 6 6 7 7 8 9 10 11 12 13 14 14 15 16
10 9 9 9 8 8 7 7 6 6 5 5 4 4 4 3 3 3 3 4 4 5 5 6 7 7 8 8 9 10 11 11 12 14 14 15 16 17
12 12 11 10 10 9 9 8 7 7 6 6 5 4 4 4 4 4 4 5 5 6 7 7 8 8 8 9 10 10 11 12 13 14 15 16 17 18
Wind_Direction
249 249 251 251 253 255 256 257 258 260 263 267 269 270 271 272 273 274 276 277 279 281 282 283 285 286 287 288 288 289 289 289 289 289 289 289 289 289
250 251 252 253 254 256 258 259 260 262 264 266 268 269 271 272 274 275 277 277 279 281 283 284 285 286 287 288 289 290 290 289 289 289 290 289 291 293
251 251 252 254 255 256 257 259 261 262 263 266 267 269 271 272 275 275 277 279 281 281 283 284 285 286 287 288 289 291 290 290 290 291 291 292 294 294
254 254 254 256 257 259 259 260 262 263 264 266 267 269 270 272 275 276 278 279 281 282 284 284 285 286 288 289 290 291 291 293 293 293 294 294 294 296
256 256 256 257 259 259 260 261 262 264 265 266 267 269 271 272 274 277 278 279 281 282 283 284 285 286 287 288 290 291 292 293 295 296 297 297 297 299
257 259 259 260 261 262 263 262 263 266 268 268 269 270 271 273 275 276 278 280 281 282 283 284 285 286 288 288 290 291 293 294 296 297 298 300 301 302
259 261 261 262 262 263 263 262 264 267 268 269 270 271 273 274 275 276 279 280 281 282 283 284 286 287 287 288 290 292 294 295 296 298 301 303 304 305
259 260 261 261 263 264 264 264 266 268 268 269 271 272 274 275 276 277 279 280 281 282 284 286 286 287 288 290 291 293 295 296 299 303 305 305 306 308
259 260 261 261 263 265 267 268 269 269 270 272 273 275 276 277 277 278 279 280 281 282 283 285 286 289 291 292 294 295 296 299 303 305 308 309 311 313
259 259 262 265 267 268 268 269 270 271 272 274 275 277 279 279 280 280 279 280 280 281 283 286 288 290 292 293 295 297 299 302 305 307 311 314 315 317
260 260 263 266 267 266 267 269 270 271 273 276 278 280 280 281 281 281 279 279 278 280 283 287 289 291 293 295 296 299 302 305 308 312 316 318 320 322
262 263 264 266 268 269 271 272 273 275 277 279 280 280 282 284 284 283 281 280 280 281 283 286 288 291 294 297 299 302 307 310 314 318 320 322 324 325
265 266 267 270 273 273 275 276 278 279 279 280 280 282 283 284 283 282 282 282 283 285 286 287 290 294 298 302 306 311 315 320 323 325 326 328 331 332
268 270 270 271 273 276 277 281 284 284 284 284 285 286 285 284 284 283 282 283 284 286 289 291 296 302 307 310 315 320 324 328 331 333 334 336 338 340
273 273 273 273 275 281 286 287 287 285 286 288 287 287 286 285 285 283 282 282 281 284 287 292 300 307 312 317 323 328 332 336 340 343 345 345 346 347
282 281 281 283 286 288 290 291 289 288 289 290 291 291 288 286 285 282 280 281 282 285 284 289 300 312 319 325 331 335 338 342 345 348 350 351 351 352
290 291 293 297 299 296 296 296 293 291 290 292 293 293 293 290 287 284 284 285 285 285 285 293 309 320 327 332 336 339 342 345 348 350 352 353 355 357
326 318 313 311 311 311 307 305 302 298 296 295 295 295 290 287 289 288 289 292 296 299 307 318 326 331 334 338 339 341 344 346 348 350 352 353 355 357
1 356 350 343 338 333 328 325 323 318 315 312 310 304 300 305 306 303 315 344 349 340 335 334 336 338 340 342 344 345 347 349 350 352 353 354 355 355
30 25 19 14 8 5 6 6 5 7 14 21 25 24 22 26 40 49 42 19 3 350 344 341 341 341 342 343 345 347 349 349 350 351 351 352 353 353
42 38 36 35 36 36 35 37 42 48 53 56 56 58 61 62 55 45 27 10 357 348 343 341 339 338 339 341 343 346 347 347 347 348 349 350 350 351
49 49 50 50 49 49 51 53 56 60 63 64 64 65 63 54 43 30 13 1 351 345 340 336 333 333 335 336 337 340 341 342 343 345 346 346 347 347
55 55 55 55 55 55 56 58 60 62 64 63 62 60 52 38 27 13 359 350 344 339 336 334 332 330 329 329 330 333 335 337 338 340 341 341 342 343
Height
5776 5777 5779 5780 5781 5782 5784 5785 5786 5786 5786 5786 5786 5786 5785 5785 5784 5783 5782 5781 5780 5779 5777 5776 5774 5771 5769 5766 5763 5760 5757 5753 5750 5747 5744 5740 5737 5733
5768 5769 5770 5772 5772 5773 5774 5775 5776 5777 5776 5776 5776 5776 5775 5775 5774 5773 5772 5771 5770 5769 5768 5766 5764 5761 5759 5756 5753 5750 5746 5743 5740 5737 5734 5730 5727 5723
5760 5761 5762 5763 5764 5765 5765 5766 5767 5767 5767 5767 5766 5766 5766 5765 5764 5764 5763 5762 5761 5759 5758 5756 5754 5751 5749 5746 5743 5740 5737 5734 5731 5728 5724 5721 5718 5714
5752 5753 5754 5755 5755 5756 5757 5757 5757 5757 5758 5757 5757 5757 5757 5756 5755 5755 5754 5752 5751 5750 5748 5747 5745 5742 5740 5737 5735 5732 5729 5726 5723 5720 5717 5713 5710 5706
5744 5745 5745 5746 5747 5747 5748 5748 5749 5749 5749 5749 5748 5748 5748 5747 5747 5746 5745 5743 5742 5741 5739 5738 5736 5734 5731 5729 5726 5724 5721 5718 5715 5712 5709 5705 5702 5699
5736 5737 5737 5738 5739 5739 5740 5740 5740 5740 5740 5740 5740 5740 5739 5739 5738 5737 5736 5735 5734 5732 5731 5729 5727 5725 5723 5721 5719 5716 5714 5711 5708 5705 5702 5699 5696 5692
5728 5729 5730 5731 5731 5732 5733 5733 5733 5733 5733 5732 5732 5732 5731 5731 5730 5729 5728 5727 5726 5724 5723 5721 5720 5718 5716 5713 5711 5709 5707 5704 5702 5699 5696 5693 5689 5686
5722 5723 5723 5724 5725 5725 5725 5725 5725 5725 5725 5725 5725 5724 5724 5723 5722 5721 5720 5720 5719 5717 5716 5714 5712 5711 5709 5707 5705 5703 5700 5698 5696 5693 5690 5687 5684 5680
5716 5717 5717 5718 5718 5718 5718 5718 5718 5718 5718 5718 5718 5717 5716 5716 5715 5714 5713 5712 5711 5710 5709 5708 5706 5705 5703 5701 5699 5697 5695 5693 5690 5688 5685 5682 5678 5675
5710 5710 5711 5711 5712 5712 5712 5712 5712 5712 5712 5711 5711 5710 5709 5708 5708 5707 5706 5705 5704 5704 5703 5702 5701 5699 5698 5696 5694 5692 5690 5688 5686 5683 5680 5677 5674 5670
5704 5705 5705 5706 5706 5706 5706 5706 5706 5706 5706 5705 5705 5704 5703 5702 5701 5701 5700 5699 5699 5699 5698 5697 5696 5694 5693 5691 5690 5688 5686 5684 5681 5679 5676 5673 5669 5666
5699 5700 5700 5700 5700 5700 5701 5701 5701 5700 5700 5699 5699 5698 5697 5696 5696 5695 5695 5694 5694 5694 5693 5692 5691 5690 5689 5687 5686 5684 5682 5680 5677 5675 5672 5669 5665 5662
5695 5695 5696 5696 5696 5696 5696 5696 5696 5695 5695 5694 5694 5693 5693 5692 5691 5691 5690 5690 5690 5689 5689 5688 5687 5686 5685 5684 5682 5681 5678 5676 5674 5671 5668 5665 5662 5658
5691 5692 5692 5692 5692 5692 5692 5692 5691 5691 5690 5690 5689 5689 5688 5688 5687 5687 5687 5686 5686 5686 5685 5685 5684 5683 5682 5681 5679 5678 5676 5673 5671 5668 5665 5662 5659 5656
5688 5689 5689 5689 5689 5689 5688 5688 5687 5687 5687 5686 5686 5685 5685 5684 5684 5684 5683 5683 5683 5683 5682 5682 5681 5681 5680 5678 5677 5675 5673 5671 5668 5666 5663 5660 5657 5653
5686 5686 5686 5686 5685 5685 5685 5685 5684 5684 5684 5683 5683 5682 5682 5682 5681 5681 5681 5681 5681 5680 5680 5680 5679 5678 5677 5676 5675 5673 5671 5669 5666 5664 5661 5658 5655 5651
5684 5684 5684 5683 5683 5683 5682 5682 5682 5681 5681 5681 5680 5680 5680 5680 5679 5679 5679 5679 5679 5678 5678 5678 5677 5677 5676 5674 5673 5671 5669 5667 5665 5662 5660 5657 5654 5650
5683 5682 5682 5682 5681 5681 5681 5680 5680 5679 5679 5679 5678 5678 5678 5678 5678 5678 5678 5678 5677 5677 5677 5677 5676 5675 5674 5673 5671 5669 5667 5665 5663 5661 5658 5655 5652 5649
5682 5682 5681 5681 5681 5680 5680 5679 5679 5678 5678 5677 5677 5677 5677 5677 5677 5677 5677 5677 5677 5676 5676 5676 5675 5674 5673 5671 5670 5668 5666 5664 5662 5659 5656 5653 5650 5647
5683 5682 5682 5681 5680 5680 5679 5679 5678 5678 5677 5677 5677 5677 5677 5677 5677 5677 5677 5676 5676 5676 5675 5674 5674 5672 5671 5670 5668 5667 5665 5662 5660 5658 5655 5652 5649 5645
5684 5683 5682 5682 5681 5680 5679 5679 5678 5678 5678 5678 5678 5677 5677 5677 5677 5677 5677 5676 5676 5675 5674 5673 5672 5671 5669 5668 5667 5665 5663 5661 5659 5656 5653 5650 5647 5644
5686 5685 5684 5683 5682 5681 5681 5680 5680 5679 5679 5679 5679 5678 5678 5678 5678 5677 5677 5676 5675 5674 5673 5672 5671 5670 5668 5667 5665 5663 5661 5659 5657 5654 5651 5648 5645 5642
5688 5687 5686 5685 5684 5684 5683 5682 5682 5681 5681 5680 5680 5680 5679 5679 5678 5677 5677 5676 5675 5674 5672 5671 5670 5668 5667 5665 5663 5661 5659 5657 5654 5652 5649 5646 5643 5639